Location: Cheyres
(46.8153°N, 6.7877°E)
Time: 04:19:41
(UTC+00:00)

MetOp-B - Pass Details

Date: 11 May 2021
Orbit: 819 x 821 km, 98.7° (Epoch: 18 June)

Event Time Altitude Azimuth Distance (km) Brightness Sun altitude
Exits shadow 20:15:13 12° 160° (SSE) 2,246 5.9 -11.8°
Maximum altitude 20:20:08 82° 74° (ENE) 835 4.1 -12.4°
Drops below altitude 10° 20:25:31 10° 347° (NNW) 2,428 7.5 -13.1°
Sets 20:27:52 0° 347° (NNW) 3,365 8.4 -13.3°
